DOYLESTOWN ARPT, PA current weather conditions

sailwx.info

Wind from 330 at 6 knots

Air temperature 4.0° C
Visibility: greater than 8.7 NM
Dewpoint -5.0° C

Last reported at 2020-Jan-28 21:05 UTC.
Time now 2020-Jan-28 22:24 UTC

Location: N 40°20' W 075°07'.
View on Google Maps.

See reports from other nearby stations

  
Tides and Currents Weather Stations Pressure Air Temp Water Temp Dewpoint Dewpoint Depression Visibility Wind Speed Wind Dir Waves Ship Positions
date/time (UTC)wind fromknots sea level pressurealtimeterstation pressurevisibilityair tempwater tempwave heightnotes
2020-Jan-28 22:10 330 6 8.7 4.0
2020-Jan-28 22:05 330 5 8.7 4.0
2020-Jan-28 22:00 330 6 8.7 4.0
2020-Jan-28 21:55 330 6 8.7 4.0
2020-Jan-28 21:54 340 6 8.7 3.9
2020-Jan-28 21:50 320 8 8.7 4.0
2020-Jan-28 21:45 340 4 8.7 4.0
2020-Jan-28 21:40 350 7 8.7 4.0
2020-Jan-28 21:35 350 9 8.7 4.0
2020-Jan-28 21:30 340 6 8.7 4.0
2020-Jan-28 21:25 330 6 8.7 4.0
2020-Jan-28 21:20 340 8 8.7 4.0
2020-Jan-28 21:15 330 11 8.7 4.0
2020-Jan-28 21:10 330 6 8.7 4.0
2020-Jan-28 21:05 330 6 8.7 4.0
2020-Jan-28 21:00 330 8 8.7 4.0
2020-Jan-28 20:55 330 7 8.7 4.0
2020-Jan-28 20:54 330 7 8.7 4.4
2020-Jan-28 20:50 330 7 8.7 4.0
2020-Jan-28 20:45 330 10 8.7 4.0
2020-Jan-28 20:40 320 5 8.7 4.0
2020-Jan-28 20:35 350 8 8.7 4.0
2020-Jan-28 20:30 330 8 8.7 4.0
2020-Jan-28 20:25 340 8 8.7 4.0
2020-Jan-28 20:20 350 8 8.7 4.0
2020-Jan-28 20:15 340 8 8.7 4.0
2020-Jan-28 20:10 330 9 8.7 5.0
2020-Jan-28 20:05 310 5 8.7 5.0
2020-Jan-28 20:00 320 8 8.7 4.0
2020-Jan-28 19:55 320 7 8.7 4.0
2020-Jan-28 19:54 320 6 8.7 4.4
2020-Jan-28 19:50 320 8 8.7 4.0
2020-Jan-28 19:45 320 11 8.7 4.0
2020-Jan-28 19:40 320 8 8.7 4.0
2020-Jan-28 19:35 320 13 8.7 4.0
2020-Jan-28 19:30 320 8 8.7 4.0
2020-Jan-28 19:25 300 9 8.7 4.0
2020-Jan-28 19:20 310 10 8.7 4.0
2020-Jan-28 19:15 310 8 8.7 4.0
2020-Jan-28 19:10 310 10 8.7 4.0
2020-Jan-28 19:05 310 12 8.7 4.0
2020-Jan-28 19:00 320 11 8.7 4.0
2020-Jan-28 18:55 310 11 8.7 4.0
2020-Jan-28 18:54 310 11 8.7 4.4
2020-Jan-28 18:50 300 9 8.7 4.0
2020-Jan-28 18:45 300 11 8.7 4.0
2020-Jan-28 18:40 300 8 8.7 4.0
2020-Jan-28 18:35 310 10 8.7 4.0
2020-Jan-28 18:30 310 8 8.7 4.0
2020-Jan-28 18:25 320 12 8.7 4.0
2020-Jan-28 18:20 320 11 8.7 4.0
2020-Jan-28 18:15 320 9 8.7 4.0
2020-Jan-28 18:10 320 9 8.7 4.0
2020-Jan-28 18:05 310 11 8.7 4.0
2020-Jan-28 18:00 310 10 8.7 4.0
2020-Jan-28 17:55 320 10 8.7 4.0
2020-Jan-28 17:54 310 9 gusting 15 8.7 4.4
2020-Jan-28 17:50 310 6 8.7 4.0
2020-Jan-28 17:45 300 10 gusting 16 8.7 4.0
2020-Jan-28 17:40 310 12 8.7 4.0
2020-Jan-28 17:35 320 12 8.7 4.0
2020-Jan-28 17:30 320 11 gusting 17 8.7 4.0
2020-Jan-28 17:25 310 11 8.7 4.0
2020-Jan-28 17:20 320 15 gusting 22 8.7 4.0
2020-Jan-28 17:15 310 11 8.7 4.0
2020-Jan-28 17:10 310 7 8.7 4.0
2020-Jan-28 17:05 320 7 8.7 4.0
2020-Jan-28 17:00 310 13 8.7 4.0
2020-Jan-28 16:55 310 10 8.7 4.0
2020-Jan-28 16:54 310 8 8.7 3.9
2020-Jan-28 16:50 300 10 gusting 15 8.7 4.0
2020-Jan-28 16:45 310 11 8.7 4.0
2020-Jan-28 16:40 320 11 gusting 16 8.7 4.0
2020-Jan-28 16:35 300 11 8.7 4.0
2020-Jan-28 16:30 310 11 8.7 4.0
2020-Jan-28 16:25 320 8 8.7 4.0
2020-Jan-28 16:20 320 7 8.7 4.0
2020-Jan-28 16:15 320 8 8.7 4.0
2020-Jan-28 16:10 310 6 8.7 4.0
2020-Jan-28 16:05 300 9 8.7 4.0
2020-Jan-28 16:00 310 8 8.7 4.0
2020-Jan-28 15:55 320 8 8.7 4.0
2020-Jan-28 15:54 320 9 8.7 3.9
2020-Jan-28 15:50 310 6 8.7 4.0
2020-Jan-28 15:45 300 6 8.7 4.0
2020-Jan-28 15:40 320 7 8.7 4.0
2020-Jan-28 15:35 310 7 8.7 4.0
2020-Jan-28 15:30 300 10 8.7 4.0
2020-Jan-28 15:25 310 6 8.7 4.0
2020-Jan-28 15:20 310 10 8.7 4.0
2020-Jan-28 15:15 330 5 8.7 4.0
2020-Jan-28 15:10 310 7 8.7 4.0
2020-Jan-28 15:05 310 7 8.7 4.0
2020-Jan-28 15:00 310 11 8.7 4.0
2020-Jan-28 14:55 320 11 8.7 4.0
2020-Jan-28 14:54 320 9 gusting 17 8.7 3.9
2020-Jan-28 14:50 320 12 8.7 4.0
2020-Jan-28 14:45 320 11 gusting 16 8.7 4.0
2020-Jan-28 14:40 330 9 8.7 4.0
2020-Jan-28 14:35 330 12 8.7 4.0
2020-Jan-28 14:30 320 12 8.7 4.0
2020-Jan-28 14:25 310 9 8.7 4.0
2020-Jan-28 14:20 310 8 8.7 4.0
2020-Jan-28 14:15 310 7 8.7 4.0
2020-Jan-28 14:10 310 8 8.7 4.0
2020-Jan-28 14:05 310 10 8.7 3.0
2020-Jan-28 14:00 310 10 8.7 3.0
2020-Jan-28 13:55 310 6 8.7 3.0
2020-Jan-28 13:54 310 8 gusting 14 8.7 3.3
2020-Jan-28 13:50 300 5 8.7 3.0
2020-Jan-28 13:45 290 8 8.7 3.0
2020-Jan-28 13:40 290 7 8.7 3.0
2020-Jan-28 13:35 280 6 8.7 3.0
2020-Jan-28 13:30 290 8 8.7 3.0
2020-Jan-28 13:25 280 8 8.7 3.0
2020-Jan-28 13:20 280 5 8.7 3.0
2020-Jan-28 13:15 280 7 8.7 3.0
2020-Jan-28 13:10 290 8 8.7 3.0
2020-Jan-28 13:05 280 5 8.7 3.0
2020-Jan-28 13:00 290 7 8.7 3.0
2020-Jan-28 12:55 300 7 8.7 3.0
2020-Jan-28 12:54 290 6 8.7 2.8
2020-Jan-28 12:50 290 5 8.7 3.0
2020-Jan-28 12:45 290 7 8.7 3.0
2020-Jan-28 12:40 290 6 8.7 3.0
2020-Jan-28 12:35 290 7 8.7 2.0
2020-Jan-28 12:30 270 6 8.7 2.0
2020-Jan-28 12:25 280 6 8.7 2.0
2020-Jan-28 12:20 280 6 8.7 2.0
2020-Jan-28 12:15 270 5 8.7 2.0
2020-Jan-28 12:10 270 5 8.7 2.0
2020-Jan-28 12:05 270 6 8.7 2.0
2020-Jan-28 12:00 280 4 8.7 2.0
2020-Jan-28 11:55 280 4 8.7 2.0
2020-Jan-28 11:54 280 5 8.7 2.2
2020-Jan-28 11:50 290 5 8.7 2.0
2020-Jan-28 11:45 280 6 8.7 2.0
2020-Jan-28 11:40 290 5 8.7 2.0
2020-Jan-28 11:35 290 5 8.7 2.0
2020-Jan-28 11:30 280 5 8.7 2.0
2020-Jan-28 11:25 280 5 8.7 2.0
2020-Jan-28 11:20 290 6 8.7 2.0
2020-Jan-28 11:15 290 6 8.7 2.0
2020-Jan-28 11:10 290 6 8.7 2.0
2020-Jan-28 11:05 290 4 8.7 2.0
2020-Jan-28 11:00 290 6 8.7 2.0
2020-Jan-28 10:55 290 6 8.7 2.0
2020-Jan-28 10:54 290 6 8.7 2.2
2020-Jan-28 10:50 290 6 8.7 2.0
2020-Jan-28 10:45 290 5 8.7 2.0
2020-Jan-28 10:40 290 5 8.7 2.0
2020-Jan-28 10:35 290 5 8.7 2.0
2020-Jan-28 10:30 300 4 8.7 2.0
2020-Jan-28 10:25 300 5 8.7 2.0
2020-Jan-28 10:20 300 5 8.7 2.0
2020-Jan-28 10:15 300 4 8.7 2.0
2020-Jan-28 10:10 300 5 8.7 2.0
2020-Jan-28 10:05 300 6 8.7 2.0
2020-Jan-28 10:00 310 6 8.7 2.0
2020-Jan-28 09:55 310 5 8.7 2.0
2020-Jan-28 09:54 310 6 8.7 2.2
2020-Jan-28 09:50 300 7 8.7 2.0
2020-Jan-28 09:45 290 7 8.7 2.0
2020-Jan-28 09:40 290 6 8.7 2.0
2020-Jan-28 09:35 290 5 8.7 2.0
2020-Jan-28 09:30 300 6 8.7 2.0
2020-Jan-28 09:25 300 4 8.7 2.0
2020-Jan-28 09:20 300 5 8.7 2.0
2020-Jan-28 09:15 300 5 8.7 2.0
2020-Jan-28 09:10 290 5 8.7 2.0
2020-Jan-28 09:05 300 4 8.7 2.0
2020-Jan-28 09:00 310 4 8.7 2.0
2020-Jan-28 08:55 300 5 8.7 3.0
2020-Jan-28 08:54 300 5 8.7 2.8
2020-Jan-28 08:50 280 5 8.7 3.0
2020-Jan-28 08:45 300 4 8.7 3.0
2020-Jan-28 08:40 290 4 8.7 3.0
2020-Jan-28 08:35 290 5 8.7 3.0
2020-Jan-28 08:30 290 5 8.7 3.0
2020-Jan-28 08:25 300 5 8.7 3.0
2020-Jan-28 08:20 300 4 8.7 3.0
2020-Jan-28 08:15 300 4 8.7 3.0
2020-Jan-28 08:10 300 4 8.7 3.0
2020-Jan-28 08:05 300 5 8.7 3.0
2020-Jan-28 08:00 300 4 8.7 3.0
2020-Jan-28 07:55 300 4 8.7 3.0
2020-Jan-28 07:54 300 4 8.7 2.8
2020-Jan-28 07:50 290 5 8.7 3.0
2020-Jan-28 07:45 290 3 8.7 3.0
2020-Jan-28 07:40 290 3 8.7 3.0
2020-Jan-28 07:35 290 4 8.7 3.0
2020-Jan-28 07:30 310 4 8.7 3.0
2020-Jan-28 07:25 320 4 8.7 3.0
2020-Jan-28 07:20 340 3 8.7 3.0
2020-Jan-28 07:15 330 4 8.7 3.0
2020-Jan-28 07:10 330 3 8.7 3.0
2020-Jan-28 07:05 330 4 8.7 3.0
2020-Jan-28 07:00 330 7 8.7 3.0 Precipitation.
2020-Jan-28 06:55 340 6 8.7 3.0 Precipitation.
2020-Jan-28 06:54 330 7 8.7 2.8 Precipitation.
2020-Jan-28 06:50 320 7 8.7 3.0
2020-Jan-28 06:45 320 7 8.7 3.0
2020-Jan-28 06:40 330 6 8.7 3.0
2020-Jan-28 06:35 330 4 8.7 3.0
2020-Jan-28 06:30 330 4 8.7 3.0
2020-Jan-28 06:25 320 4 8.7 3.0
2020-Jan-28 06:20 330 5 8.7 3.0
2020-Jan-28 06:15 310 6 8.7 3.0
2020-Jan-28 06:10 310 6 8.7 3.0
2020-Jan-28 06:05 320 7 8.7 3.0
2020-Jan-28 06:00 330 7 8.7 3.0
2020-Jan-28 05:55 330 8 8.7 3.0
2020-Jan-28 05:54 320 8 8.7 3.3
2020-Jan-28 05:50 320 8 8.7 3.0
2020-Jan-28 05:45 310 7 8.7 3.0
2020-Jan-28 05:40 310 8 8.7 3.0
2020-Jan-28 05:35 300 7 8.7 3.0
2020-Jan-28 05:30 300 4 8.7 3.0
2020-Jan-28 05:25 300 6 8.7 3.0
2020-Jan-28 05:20 300 6 8.7 3.0
2020-Jan-28 05:15 290 6 8.7 3.0
2020-Jan-28 05:10 290 5 8.7 3.0
2020-Jan-28 05:05 290 5 8.7 3.0
2020-Jan-28 05:00 300 5 8.7 3.0
2020-Jan-28 04:55 320 4 8.7 3.0
2020-Jan-28 04:54 310 2 8.7 3.3
2020-Jan-28 04:50 320 4 8.7 3.0
2020-Jan-28 04:45 330 5 8.7 3.0 Light rain.
2020-Jan-28 04:40 310 6 8.7 3.0 Light rain.
2020-Jan-28 04:35 310 4 8.7 3.0
2020-Jan-28 04:30 310 4 8.7 3.0
2020-Jan-28 04:25 320 6 8.7 3.0
2020-Jan-28 04:20 310 5 8.7 3.0
2020-Jan-28 04:15 310 6 8.7 3.0 Light rain.
2020-Jan-28 04:10 330 5 7.0 3.0 Light rain.
2020-Jan-28 04:05 340 6 7.0 4.0 Light rain.
2020-Jan-28 04:00 340 6 8.7 4.0
2020-Jan-28 03:55 310 8 8.7 4.0
2020-Jan-28 03:54 300 7 8.7 4.4
2020-Jan-28 03:50 290 7 8.7 4.0
2020-Jan-28 03:45 300 5 8.7 4.0
2020-Jan-28 03:40 300 7 8.7 4.0
2020-Jan-28 03:35 290 6 8.7 4.0
2020-Jan-28 03:30 280 6 8.7 4.0
2020-Jan-28 03:25 280 6 8.7 4.0
2020-Jan-28 03:20 290 5 8.7 4.0
2020-Jan-28 03:15 280 4 8.7 4.0
2020-Jan-28 03:10 280 5 8.7 4.0
2020-Jan-28 03:05 270 6 8.7 4.0
2020-Jan-28 03:00 280 7 8.7 4.0
2020-Jan-28 02:55 290 5 8.7 4.0
2020-Jan-28 02:54 300 5 8.7 4.4
2020-Jan-28 02:50 290 5 8.7 4.0
2020-Jan-28 02:45 290 5 8.7 4.0
2020-Jan-28 02:40 290 4 8.7 4.0
2020-Jan-28 02:35 290 5 8.7 4.0
2020-Jan-28 02:30 290 5 8.7 5.0
2020-Jan-28 02:25 290 5 8.7 5.0
2020-Jan-28 02:20 290 6 8.7 5.0
2020-Jan-28 02:15 290 6 8.7 5.0
2020-Jan-28 02:10 290 7 8.7 5.0
2020-Jan-28 02:05 290 5 8.7 5.0
2020-Jan-28 02:00 290 6 8.7 5.0
2020-Jan-28 01:55 290 8 8.7 5.0
2020-Jan-28 01:54 290 6 8.7 5.0
2020-Jan-28 01:50 300 5 8.7 5.0
2020-Jan-28 01:45 300 4 8.7 5.0
2020-Jan-28 01:40 280 6 8.7 5.0
2020-Jan-28 01:35 280 6 8.7 5.0
2020-Jan-28 01:30 280 6 8.7 5.0
2020-Jan-28 01:25 290 4 8.7 5.0
2020-Jan-28 01:20 290 4 8.7 5.0
2020-Jan-28 01:15 280 4 8.7 5.0
2020-Jan-28 01:10 280 4 8.7 5.0
2020-Jan-28 00:50 280 4 8.7 5.0
2020-Jan-28 00:45 280 4 8.7 5.0
2020-Jan-28 00:40 270 5 8.7 5.0
2020-Jan-28 00:35 270 4 8.7 5.0
2020-Jan-28 00:30 270 4 8.7 5.0
2020-Jan-28 00:25 270 5 8.7 5.0
2020-Jan-28 00:20 270 5 8.7 4.0
2020-Jan-28 00:15 270 5 8.7 5.0
2020-Jan-28 00:10 270 4 8.7 5.0
2020-Jan-28 00:05 260 5 8.7 5.0
2020-Jan-28 00:00 270 5 8.7 5.0
2020-Jan-27 23:55 260 6 8.7 5.0
2020-Jan-27 23:54 260 6 8.7 5.0
2020-Jan-27 23:50 260 4 8.7 5.0
2020-Jan-27 23:45 270 6 8.7 5.0
2020-Jan-27 23:40 270 4 8.7 5.0
2020-Jan-27 23:35 270 4 8.7 5.0
2020-Jan-27 23:30 270 4 8.7 4.0
2020-Jan-27 23:25 270 5 8.7 4.0
2020-Jan-27 23:20 270 5 8.7 4.0
2020-Jan-27 23:15 270 6 8.7 4.0
2020-Jan-27 23:10 270 5 8.7 4.0
2020-Jan-27 23:05 270 6 8.7 5.0
2020-Jan-27 23:00 270 6 8.7 5.0
2020-Jan-27 22:55 270 7 8.7 5.0
2020-Jan-27 22:54 260 6 8.7 5.0
2020-Jan-27 22:50 260 7 8.7 5.0
2020-Jan-27 22:45 260 5 8.7 6.0
2020-Jan-27 22:40 270 6 8.7 6.0
2020-Jan-27 22:35 260 6 8.7 6.0
2020-Jan-27 22:30 250 5 8.7 6.0
2020-Jan-27 22:25 280 4 8.7 6.0
2020-Jan-27 22:20 290 6 8.7 6.0
2020-Jan-27 22:15 290 6 8.7 6.0
2020-Jan-27 22:10 280 8 8.7 6.0
2020-Jan-27 22:05 290 9 8.7 6.0
2020-Jan-27 22:00 280 4 8.7 6.0
2020-Jan-27 21:55 300 7 8.7 6.0
2020-Jan-27 21:54 290 6 8.7 5.6
2020-Jan-27 21:50 280 7 8.7 6.0
2020-Jan-27 21:45 300 10 8.7 6.0
2020-Jan-27 21:40 290 7 8.7 6.0
2020-Jan-27 21:35 290 11 8.7 6.0
2020-Jan-27 21:30 300 11 8.7 6.0
2020-Jan-27 21:25 290 12 8.7 6.0
2020-Jan-27 21:20 290 7 8.7 6.0
2020-Jan-27 21:15 290 12 gusting 17 8.7 6.0
2020-Jan-27 21:10 290 6 8.7 6.0
2020-Jan-27 21:05 290 9 8.7 7.0
2020-Jan-27 21:00 290 6 8.7 6.0
2020-Jan-27 20:55 310 10 8.7 7.0
2020-Jan-27 20:54 310 11 gusting 15 8.7 6.7
2020-Jan-27 20:50 310 9 8.7 7.0
2020-Jan-27 20:45 290 10 8.7 7.0
2020-Jan-27 20:40 280 10 8.7 7.0
2020-Jan-27 20:35 280 11 8.7 7.0
2020-Jan-27 20:30 270 11 8.7 7.0
2020-Jan-27 20:25 280 10 8.7 7.0
2020-Jan-27 20:20 310 9 8.7 7.0
2020-Jan-27 20:15 300 8 8.7 7.0
2020-Jan-27 20:10 290 12 gusting 17 8.7 7.0
2020-Jan-27 20:05 290 8 8.7 7.0
2020-Jan-27 20:00 290 10 8.7 7.0
2020-Jan-27 19:55 290 10 8.7 7.0
2020-Jan-27 19:54 290 9 8.7 6.7
2020-Jan-27 19:50 280 11 8.7 7.0
2020-Jan-27 19:45 280 9 8.7 7.0
2020-Jan-27 19:40 290 11 8.7 7.0
2020-Jan-27 19:35 280 7 8.7 7.0
2020-Jan-27 19:30 270 9 8.7 7.0
2020-Jan-27 19:25 280 11 8.7 7.0
2020-Jan-27 19:20 280 11 gusting 18 8.7 7.0
2020-Jan-27 19:15 270 11 gusting 16 8.7 7.0
2020-Jan-27 19:10 270 8 8.7 7.0
2020-Jan-27 19:05 280 11 gusting 16 8.7 7.0
2020-Jan-27 19:00 270 9 gusting 16 8.7 7.0
2020-Jan-27 18:55 270 11 8.7 7.0
2020-Jan-27 18:54 270 8 gusting 15 8.7 6.7
2020-Jan-27 18:50 270 8 8.7 7.0
2020-Jan-27 18:45 280 9 gusting 14 8.7 7.0
2020-Jan-27 18:40 260 8 8.7 7.0
2020-Jan-27 18:35 290 8 8.7 7.0
2020-Jan-27 18:30 260 9 gusting 15 8.7 7.0
2020-Jan-27 18:25 280 6 8.7 7.0
2020-Jan-27 18:20 280 7 8.7 6.0
2020-Jan-27 18:15 280 6 8.7 6.0
2020-Jan-27 18:10 270 8 8.7 7.0
2020-Jan-27 18:05 270 8 8.7 6.0
2020-Jan-27 18:00 270 6 8.7 6.0
2020-Jan-27 17:55 280 7 8.7 6.0
2020-Jan-27 17:54 270 6 8.7 6.1
2020-Jan-27 17:50 270 7 8.7 6.0
2020-Jan-27 17:45 270 8 8.7 6.0
2020-Jan-27 17:40 270 7 8.7 6.0
2020-Jan-27 17:35 270 10 8.7 6.0
2020-Jan-27 17:30 260 8 8.7 6.0
2020-Jan-27 17:25 270 9 8.7 6.0
2020-Jan-27 17:20 250 5 8.7 6.0
2020-Jan-27 17:15 260 9 8.7 6.0
2020-Jan-27 17:10 250 11 8.7 6.0
2020-Jan-27 17:05 260 10 8.7 6.0
2020-Jan-27 17:00 270 9 8.7 6.0
2020-Jan-27 16:55 270 7 8.7 6.0
2020-Jan-27 16:54 270 6 8.7 5.6
2020-Jan-27 16:50 250 6 8.7 6.0
2020-Jan-27 16:45 250 6 8.7 6.0
2020-Jan-27 16:40 260 7 8.7 6.0
2020-Jan-27 16:35 240 7 8.7 6.0
2020-Jan-27 16:30 240 7 8.7 6.0
2020-Jan-27 16:25 240 8 8.7 6.0
2020-Jan-27 16:20 270 7 8.7 6.0
2020-Jan-27 16:15 240 7 8.7 5.0
2020-Jan-27 16:10 250 7 8.7 5.0
2020-Jan-27 16:05 260 5 8.7 6.0
2020-Jan-27 16:00 250 5 8.7 6.0
2020-Jan-27 15:55 250 6 8.7 6.0
2020-Jan-27 15:54 250 5 8.7 5.6
2020-Jan-27 15:50 240 5 8.7 6.0
2020-Jan-27 15:45 250 7 8.7 5.0
2020-Jan-27 15:40 240 8 8.7 5.0
2020-Jan-27 15:35 260 8 8.7 5.0
2020-Jan-27 15:30 240 7 8.7 5.0
2020-Jan-27 15:25 250 10 8.7 5.0
2020-Jan-27 15:20 230 7 8.7 5.0
2020-Jan-27 15:15 240 8 8.7 5.0
2020-Jan-27 15:10 230 8 8.7 4.0
2020-Jan-27 15:05 220 8 8.7 4.0
2020-Jan-27 15:00 240 6 8.7 4.0
2020-Jan-27 14:55 230 6 8.7 4.0
2020-Jan-27 14:54 230 7 8.7 4.4
2020-Jan-27 14:50 220 9 8.7 4.0
2020-Jan-27 14:45 230 6 8.7 4.0
2020-Jan-27 14:40 220 7 8.7 4.0
2020-Jan-27 14:35 220 8 8.7 4.0
2020-Jan-27 14:30 230 6 8.7 4.0
2020-Jan-27 14:25 240 7 8.7 4.0
2020-Jan-27 14:20 230 8 8.7 4.0
2020-Jan-27 14:15 240 7 8.7 4.0
2020-Jan-27 14:10 230 7 8.7 4.0
2020-Jan-27 14:05 230 5 8.7 3.0
2020-Jan-27 14:00 240 4 8.7 3.0
2020-Jan-27 13:55 240 5 8.7 3.0
2020-Jan-27 13:54 230 5 8.7 3.3
2020-Jan-27 13:50 240 3 8.7 3.0
2020-Jan-27 13:45 220 5 8.7 3.0
2020-Jan-27 13:40 230 4 8.7 3.0
2020-Jan-27 13:35 220 5 8.7 3.0
2020-Jan-27 13:30 220 6 8.7 3.0
2020-Jan-27 13:25 200 5 8.7 3.0
2020-Jan-27 13:20 200 5 8.7 3.0
2020-Jan-27 13:15 200 5 8.7 3.0
2020-Jan-27 13:10 210 5 8.7 3.0
2020-Jan-27 13:05 210 5 8.7 3.0
2020-Jan-27 13:00 210 4 8.7 3.0
2020-Jan-27 12:55 210 6 8.7 3.0
2020-Jan-27 12:54 220 5 8.7 2.8
2020-Jan-27 12:50 220 4 8.7 3.0
2020-Jan-27 12:45 200 4 8.7 3.0
2020-Jan-27 12:40 210 4 8.7 3.0
2020-Jan-27 12:35 210 4 8.7 3.0
2020-Jan-27 12:30 210 4 8.7 3.0
2020-Jan-27 12:25 220 6 8.7 3.0
2020-Jan-27 12:20 230 4 8.7 3.0
2020-Jan-27 12:15 230 4 8.7 3.0
2020-Jan-27 12:10 230 5 8.7 3.0
2020-Jan-27 12:05 230 4 8.7 3.0
2020-Jan-27 12:00 230 5 8.7 3.0
2020-Jan-27 11:55 220 4 8.7 3.0
2020-Jan-27 11:54 220 5 8.7 2.8
2020-Jan-27 11:50 220 5 8.7 3.0
2020-Jan-27 11:45 220 4 8.7 3.0
2020-Jan-27 11:40 220 6 8.7 2.0
2020-Jan-27 11:35 220 6 8.7 2.0
2020-Jan-27 11:30 230 5 8.7 2.0
2020-Jan-27 11:25 220 6 8.7 2.0
2020-Jan-27 11:20 220 6 8.7 2.0
2020-Jan-27 11:15 220 7 8.7 2.0
2020-Jan-27 11:10 230 4 8.7 2.0
2020-Jan-27 11:05 230 5 8.7 2.0
2020-Jan-27 11:00 220 5 8.7 2.0
2020-Jan-27 10:55 230 4 8.7 2.0
2020-Jan-27 10:54 230 2 8.7 2.2
2020-Jan-27 10:50 220 4 8.7 2.0
2020-Jan-27 10:45 230 3 8.7 2.0
2020-Jan-27 10:40 230 4 8.7 2.0
2020-Jan-27 10:35 230 3 8.7 2.0
2020-Jan-27 10:30 240 4 8.7 2.0
2020-Jan-27 10:25 240 4 8.7 2.0
2020-Jan-27 10:20 240 4 8.7 2.0
2020-Jan-27 10:15 250 5 8.7 2.0
2020-Jan-27 10:10 240 5 8.7 2.0
2020-Jan-27 10:05 240 6 8.7 2.0
2020-Jan-27 10:00 230 6 8.7 2.0
2020-Jan-27 09:55 230 6 8.7 2.0
2020-Jan-27 09:54 230 6 8.7 2.2
2020-Jan-27 09:50 240 5 8.7 2.0
2020-Jan-27 09:45 230 4 8.7 2.0
2020-Jan-27 09:40 240 5 8.7 2.0
2020-Jan-27 09:35 230 4 8.7 2.0
2020-Jan-27 09:30 230 5 8.7 2.0
2020-Jan-27 09:25 240 5 8.7 2.0
2020-Jan-27 09:20 230 5 8.7 2.0
2020-Jan-27 09:15 240 5 8.7 2.0
2020-Jan-27 09:10 230 5 8.7 2.0
2020-Jan-27 09:05 220 6 8.7 2.0
2020-Jan-27 09:00 230 6 8.7 2.0
2020-Jan-27 08:55 220 5 8.7 2.0
2020-Jan-27 08:54 230 5 8.7 2.2
2020-Jan-27 08:50 220 6 8.7 2.0
2020-Jan-27 08:45 220 8 8.7 2.0
2020-Jan-27 08:40 230 8 8.7 2.0
2020-Jan-27 08:35 220 6 8.7 2.0
2020-Jan-27 08:30 230 5 8.7 2.0
2020-Jan-27 08:25 230 3 8.7 2.0
2020-Jan-27 08:20 230 4 8.7 2.0
2020-Jan-27 08:15 230 5 8.7 2.0
2020-Jan-27 08:10 230 4 8.7 2.0
2020-Jan-27 08:05 230 5 8.7 2.0
2020-Jan-27 08:00 230 4 8.7 2.0
2020-Jan-27 07:55 220 5 8.7 2.0
2020-Jan-27 07:54 220 5 8.7 1.7
2020-Jan-27 07:50 220 5 8.7 2.0
2020-Jan-27 07:45 210 4 8.7 2.0
2020-Jan-27 07:40 220 4 8.7 2.0
2020-Jan-27 07:35 230 4 8.7 2.0
2020-Jan-27 07:30 230 5 8.7 2.0
2020-Jan-27 07:25 220 5 8.7 2.0
2020-Jan-27 07:20 230 4 8.7 2.0
2020-Jan-27 07:15 220 6 8.7 2.0
2020-Jan-27 07:10 220 6 8.7 2.0
2020-Jan-27 07:05 230 4 8.7 2.0
2020-Jan-27 07:00 230 3 8.7 1.0
2020-Jan-27 06:55 240 3 8.7 1.0
2020-Jan-27 06:54 240 2 8.7 1.1
2020-Jan-27 06:50 240 3 8.7 1.0
2020-Jan-27 06:45 240 3 8.7 1.0
2020-Jan-27 06:40 240 3 8.7 1.0
2020-Jan-27 06:35 230 3 8.7 1.0
2020-Jan-27 06:30 220 4 8.7 1.0
2020-Jan-27 06:25 220 4 8.7 1.0
2020-Jan-27 06:20 210 3 8.7 1.0
2020-Jan-27 06:15 220 3 8.7 1.0
2020-Jan-27 06:10 220 3 8.7 1.0
2020-Jan-27 06:05 240 3 8.7 1.0
2020-Jan-27 06:00 240 3 8.7 1.0
2020-Jan-27 05:55 250 4 8.7 1.0
2020-Jan-27 05:54 250 2 8.7 1.1
2020-Jan-27 05:50 260 4 8.7 2.0
2020-Jan-27 05:45 250 4 8.7 2.0
2020-Jan-27 05:40 230 3 8.7 2.0
2020-Jan-27 05:35 230 3 8.7 2.0
2020-Jan-27 05:30 220 4 8.7 1.0
2020-Jan-27 05:25 220 4 8.7 1.0
2020-Jan-27 05:20 220 4 8.7 1.0
2020-Jan-27 05:15 220 4 8.7 1.0
2020-Jan-27 05:10 220 3 8.7 1.0
2020-Jan-27 05:05 220 4 8.7 1.0
2020-Jan-27 05:00 210 4 8.7 1.0
2020-Jan-27 04:55 210 3 8.7 1.0
2020-Jan-27 04:54 210 4 8.7 1.1
2020-Jan-27 04:50 200 4 8.7 1.0
2020-Jan-27 04:45 220 4 8.7 1.0
2020-Jan-27 04:40 220 4 8.7 2.0
2020-Jan-27 04:35 230 4 8.7 2.0
2020-Jan-27 04:30 230 3 8.7 2.0
2020-Jan-27 04:25 240 3 8.7 2.0
2020-Jan-27 04:20 250 3 8.7 2.0
2020-Jan-27 04:15 250 4 8.7 2.0
2020-Jan-27 04:10 240 4 8.7 3.0
2020-Jan-27 04:05 240 4 8.7 3.0
2020-Jan-27 04:00 250 5 8.7 3.0
2020-Jan-27 03:55 240 4 8.7 3.0
2020-Jan-27 03:54 250 4 8.7 2.8
2020-Jan-27 03:50 250 4 8.7 3.0
2020-Jan-27 03:45 260 4 8.7 3.0
2020-Jan-27 03:40 260 4 8.7 3.0
2020-Jan-27 03:35 250 3 8.7 3.0
2020-Jan-27 03:30 260 4 8.7 3.0
2020-Jan-27 03:25 260 3 8.7 3.0
2020-Jan-27 03:20 240 3 8.7 3.0
2020-Jan-27 03:15 250 4 8.7 3.0
2020-Jan-27 03:10 250 5 8.7 3.0
2020-Jan-27 03:05 260 5 8.7 3.0
2020-Jan-27 03:00 260 6 8.7 3.0
2020-Jan-27 02:55 250 5 8.7 3.0
2020-Jan-27 02:54 260 6 8.7 3.3
2020-Jan-27 02:50 260 7 8.7 3.0
2020-Jan-27 02:45 260 6 8.7 3.0
2020-Jan-27 02:40 250 5 8.7 3.0
2020-Jan-27 02:35 240 5 8.7 3.0
2020-Jan-27 02:30 250 5 8.7 3.0
2020-Jan-27 02:25 250 6 8.7 3.0
2020-Jan-27 02:20 250 5 8.7 3.0
2020-Jan-27 02:15 250 4 8.7 3.0
2020-Jan-27 02:10 250 5 8.7 3.0
2020-Jan-27 02:05 250 3 8.7 3.0
2020-Jan-27 02:00 260 4 8.7 3.0
2020-Jan-27 01:55 260 4 8.7 3.0
2020-Jan-27 01:54 260 2 8.7 3.3
2020-Jan-27 01:50 250 4 8.7 3.0
2020-Jan-27 01:45 260 3 8.7 3.0
2020-Jan-27 01:40 260 3 8.7 4.0
2020-Jan-27 01:35 260 3 8.7 4.0
2020-Jan-27 01:30 260 4 8.7 4.0
2020-Jan-27 01:25 250 3 8.7 4.0
2020-Jan-27 01:20 260 3 8.7 4.0
2020-Jan-27 01:15 260 4 8.7 4.0
2020-Jan-27 01:10 250 4 8.7 4.0
2020-Jan-27 01:05 250 3 8.7 4.0
2020-Jan-27 01:00 260 5 8.7 4.0
2020-Jan-27 00:55 240 4 8.7 4.0
2020-Jan-27 00:54 260 4 8.7 4.4
2020-Jan-27 00:50 270 6 8.7 4.0
2020-Jan-27 00:45 270 6 8.7 4.0
2020-Jan-27 00:40 270 6 8.7 4.0
2020-Jan-27 00:35 270 5 8.7 4.0
2020-Jan-27 00:30 270 5 8.7 4.0
2020-Jan-27 00:25 270 7 8.7 4.0
2020-Jan-27 00:20 280 5 8.7 4.0
2020-Jan-27 00:15 270 5 8.7 4.0
2020-Jan-27 00:10 270 4 8.7 4.0
2020-Jan-27 00:05 270 6 8.7 4.0
2020-Jan-27 00:00 280 5 8.7 4.0
2020-Jan-26 23:55 270 5 8.7 4.0
2020-Jan-26 23:54 280 5 8.7 4.4
2020-Jan-26 23:50 270 5 8.7 4.0
2020-Jan-26 23:45 290 7 8.7 4.0
2020-Jan-26 23:40 290 8 8.7 4.0
2020-Jan-26 23:35 280 7 8.7 5.0
2020-Jan-26 23:30 280 7 8.7 5.0
2020-Jan-26 23:25 270 7 8.7 5.0
2020-Jan-26 23:20 280 7 8.7 5.0
2020-Jan-26 23:15 280 7 8.7 5.0
2020-Jan-26 23:10 280 7 8.7 6.0
2020-Jan-26 23:05 280 8 8.7 6.0
2020-Jan-26 23:00 290 8 8.7 6.0
2020-Jan-26 22:55 280 7 8.7 6.0
2020-Jan-26 22:54 8.7 5.6
2020-Jan-26 22:50 300 6 8.7 6.0
2020-Jan-26 22:45 290 8 8.7 6.0
2020-Jan-26 22:40 280 11 gusting 16 8.7 6.0
2020-Jan-26 22:35 280 9 8.7 6.0
2020-Jan-26 22:30 290 9 8.7 6.0
2020-Jan-26 22:25 290 12 8.7 6.0
2020-Jan-26 22:20 270 8 8.7 6.0
2020-Jan-26 22:15 270 9 8.7 6.0
2020-Jan-26 22:10 270 9 8.7 6.0
2020-Jan-26 22:05 270 11 8.7 6.0
2020-Jan-26 22:00 270 6 8.7 6.0